Weather History for PAPB - December, 2013

Change the Weather History Date:

Monday, December 2, 2013

  Actual Average Record
Temperature  
Mean Temperature 37 °F -  
Max Temperature 39 °F 32 °F 41 °F (2002)
Min Temperature 35 °F 25 °F 17 °F (2003)
Degree Days  
Heating Degree Days 28    
Moisture  
Dew Point 36 °F    
Average Humidity 92    
Maximum Humidity 100    
Minimum Humidity 81    
Precipitation  
Precipitation 0.11 in - - ()
Sea Level Pressure  
Sea Level Pressure 30.21 in    
Wind  
Wind Speed 17 mph (SE)    
Max Wind Speed 24 mph    
Max Gust Speed 32 mph    
Visibility 10 miles    
Events Rain    
Averages and records for this station are not official NWS values.
T = Trace of Precipitation, MM = Missing Value Source: NWS Daily Summary

Daily Weather History Graph

Daily Weather History Graph

Search for Another Location

Airport or City:

Trip Planner

Search our weather history database for the weather conditions in past years. The results will help you decide how hot, cold, wet, or windy it might be!

Date:

Astronomy

Dec. 02, 2013 Rise Set
Actual Time 10:31 AM AKST 5:44 PM AKST
Civil Twilight 9:44 AM AKST 6:31 PM AKST
Nautical Twilight 8:55 AM AKST 7:20 PM AKST
Astronomical Twilight 8:10 AM AKST 8:06 PM AKST
Moon 10:04 AM AKST (12/2) 6:06 PM AKST (12/2)
Length of Visible Light 8h 46m
Length of Day
7h 13m
Waning Crescent, 0% of the Moon is Illuminated
Dec 2
Waning Crescent
Dec 2
New
Dec 9
First Quarter
Dec 17
Full
Dec 25
Last Quarter

Hourly Weather History & Observations

Time (AKST) Temp. Windchill Dew Point Humidity Pressure Visibility Wind Dir Wind Speed Gust Speed Precip Events Conditions
12:03 AM 39.2 °F 28.5 °F 33.8 °F 81% 30.13 in 10.0 mi SSE 24.2 mph 32.2 mph N/A   Mostly Cloudy
12:53 AM 39.0 °F 28.8 °F 35.1 °F 86% 30.11 in 10.0 mi SSE 21.9 mph 29.9 mph N/A   Mostly Cloudy
1:09 AM 39.2 °F 29.0 °F 35.6 °F 87% 30.15 in 10.0 mi SSE 21.9 mph 28.8 mph N/A   Overcast
1:53 AM 39.0 °F 29.9 °F 36.0 °F 89% 30.12 in 10.0 mi SSE 17.3 mph 27.6 mph N/A   Overcast
2:53 AM 39.0 °F 28.5 °F 35.1 °F 86% 30.13 in 10.0 mi SSE 23.0 mph 28.8 mph N/A   Overcast
3:53 AM 39.0 °F 30.3 °F 35.1 °F 86% 30.14 in 10.0 mi SSE 16.1 mph 24.2 mph N/A   Overcast
4:53 AM 39.9 °F 30.8 °F 36.0 °F 86% 30.15 in 10.0 mi SSE 18.4 mph - N/A   Overcast
5:27 AM 39.2 °F 29.3 °F 37.4 °F 93% 30.18 in 10.0 mi South 20.7 mph 29.9 mph N/A   Overcast
5:53 AM 39.9 °F 30.5 °F 36.0 °F 86% 30.16 in 10.0 mi SSE 19.6 mph 24.2 mph N/A   Overcast
6:53 AM 39.9 °F 30.8 °F 36.0 °F 86% 30.17 in 10.0 mi SSE 18.4 mph 24.2 mph N/A   Overcast
7:53 AM 39.9 °F 31.4 °F 36.0 °F 86% 30.18 in 10.0 mi SSE 16.1 mph - N/A   Overcast
8:53 AM 39.9 °F 32.5 °F 37.0 °F 89% 30.19 in 10.0 mi SSE 12.7 mph - N/A   Overcast
9:12 AM 39.2 °F 32.0 °F 37.4 °F 93% 30.23 in 10.0 mi South 11.5 mph - N/A   Overcast
9:42 AM 39.2 °F 30.8 °F 37.4 °F 93% 30.23 in 10.0 mi SSE 15.0 mph - N/A   Overcast
9:53 AM 39.9 °F 32.1 °F 37.0 °F 89% 30.20 in 10.0 mi SSE 13.8 mph - N/A   Overcast
10:17 AM 39.2 °F 32.0 °F 37.4 °F 93% 30.24 in 10.0 mi SSE 11.5 mph - N/A   Overcast
10:53 AM 39.9 °F 32.9 °F 36.0 °F 86% 30.23 in 10.0 mi South 11.5 mph - N/A   Overcast
11:53 AM 39.9 °F 32.5 °F 37.0 °F 89% 30.25 in 6.0 mi SSE 12.7 mph - N/A   Overcast
12:53 PM 39.9 °F 33.4 °F 37.9 °F 93% 30.25 in 10.0 mi SE 10.4 mph - N/A   Overcast
1:36 PM 39.2 °F 33.0 °F 37.4 °F 93% 30.29 in 10.0 mi SE 9.2 mph - N/A   Overcast
1:53 PM 39.9 °F 33.9 °F 39.0 °F 97% 30.25 in 10.0 mi SSE 9.2 mph - N/A   Overcast
2:29 PM 39.2 °F 34.2 °F 39.2 °F 100% 30.28 in 10.0 mi SE 6.9 mph - N/A   Scattered Clouds
2:53 PM 39.9 °F 33.9 °F 37.9 °F 93% 30.25 in 10.0 mi SE 9.2 mph - N/A   Partly Cloudy
3:18 PM 39.2 °F 33.0 °F 39.2 °F 100% 30.28 in 10.0 mi SE 9.2 mph - N/A   Mostly Cloudy
3:53 PM 39.9 °F 35.1 °F 39.0 °F 97% 30.24 in 10.0 mi SE 6.9 mph - N/A   Overcast
4:16 PM 39.2 °F 35.0 °F 37.4 °F 93% 30.27 in 10.0 mi ESE 5.8 mph - N/A   Mostly Cloudy
4:53 PM 39.0 °F 34.0 °F 37.0 °F 93% 30.23 in 10.0 mi East 6.9 mph - N/A   Mostly Cloudy
5:53 PM 37.0 °F 31.0 °F 36.0 °F 96% 30.24 in 10.0 mi ENE 8.1 mph - N/A   Mostly Cloudy
6:53 PM 37.9 °F 30.9 °F 37.0 °F 97% 30.23 in 10.0 mi East 10.4 mph - N/A   Clear
7:53 PM 37.9 °F 30.9 °F 36.0 °F 93% 30.22 in 10.0 mi ENE 10.4 mph - N/A   Overcast
8:48 PM 37.4 °F 29.3 °F 35.6 °F 93% 30.25 in 10.0 mi East 12.7 mph - N/A   Overcast
8:53 PM 37.9 °F 29.2 °F 36.0 °F 93% 30.22 in 10.0 mi East 15.0 mph - N/A   Overcast
9:50 PM 37.4 °F 28.5 °F 35.6 °F 93% 30.25 in 6.0 mi ENE 15.0 mph - 0.00 in   Overcast
9:53 PM 37.0 °F 28.1 °F 35.1 °F 93% 30.21 in 7.0 mi ENE 15.0 mph - 0.00 in   Overcast
10:15 PM 37.4 °F 27.2 °F 35.6 °F 93% 30.24 in 8.0 mi ENE 19.6 mph 25.3 mph 0.02 in Rain Light Rain
10:24 PM 37.4 °F 27.2 °F 35.6 °F 93% 30.24 in 9.0 mi ENE 19.6 mph 25.3 mph 0.02 in Rain Light Rain
10:53 PM 35.1 °F 24.5 °F 34.0 °F 96% 30.20 in 7.0 mi ENE 18.4 mph - 0.06 in Rain Rain
11:53 PM 36.0 °F 25.6 °F 35.1 °F 97% 30.19 in 8.0 mi ENE 18.4 mph - 0.05 in   Overcast